Terminal Aerodrome Forecast
Issued by NWS Wakefield, VA

Home | Current Version | Previous Version | Text Only | Print | Product List | Glossary On
Versions: 1 2 3 4 5 6 7 8 9 10 11 12 13 14 15 16
000
FTUS41 KAKQ 090940 AAB
TAFRIC
TAF AMD
KRIC 090940Z 0910/1006 VRB02KT P6SM SCT007 OVC030
      TEMPO 0910/0912 OVC007
     FM091200 26005KT P6SM BKN015 BKN080
     FM091600 27012G18KT P6SM BKN050
     FM100000 27008KT P6SM OVC050=

USA.gov is the U.S. government's official web portal to all federal, state and local government web resources and services.